| time (UTC) | temp F | wind direction | speed knots | gust knots | rain 1hr in | rain 24hr in | rain mn in | humidity % | barometer mb |
| 20260510130020 | 62 | 255 | 1.7 | 3.5 | 0.00 | 0.03 | 0.00 | 78 | 1013.4 |
| 20260510124524 | 61 | 240 | 0.0 | 2.6 | 0.00 | 0.03 | 0.00 | 80 | 1013.1 |
| 20260510123011 | 60 | 217 | 0.0 | 1.7 | 0.00 | 0.03 | 0.00 | 84 | 1013.3 |
| 20260510121514 | 59 | 213 | 0.0 | 0.0 | 0.00 | 0.04 | 0.00 | 86 | 1013.0 |
| 20260510120003 | 58 | 213 | 0.0 | 1.7 | 0.00 | 0.04 | 0.00 | 87 | 1012.8 |
| 20260510114501 | 57 | 213 | 0.0 | 0.0 | 0.00 | 0.04 | 0.00 | 90 | 1012.7 |
| 20260510113028 | 56 | 213 | 0.0 | 0.0 | 0.00 | 0.04 | 0.00 | 92 | 1012.2 |
| 20260510111528 | 54 | 213 | 0.0 | 0.0 | 0.00 | 0.06 | 0.00 | 94 | 1012.0 |
| 20260510110027 | 53 | 213 | 0.0 | 0.0 | 0.00 | 0.06 | 0.00 | 94 | 1011.8 |
| 20260510104523 | 52 | 213 | 0.0 | 2.6 | 0.00 | 0.06 | 0.00 | 94 | 1011.5 |
| 20260510103026 | 52 | 213 | 0.0 | 0.0 | 0.00 | 0.06 | 0.00 | 94 | 1011.5 |
| 20260510101519 | 52 | 213 | 0.0 | 0.0 | 0.00 | 0.08 | 0.00 | 94 | 1011.1 |
| 20260510100028 | 52 | 213 | 0.0 | 0.9 | 0.00 | 0.08 | 0.00 | 94 | 1010.9 |
| 20260510094516 | 52 | 213 | 0.0 | 0.0 | 0.00 | 0.08 | 0.00 | 93 | 1010.7 |
| 20260510093011 | 52 | 213 | 0.0 | 0.0 | 0.00 | 0.08 | 0.00 | 93 | 1010.5 |
| 20260510091509 | 52 | 213 | 0.0 | 0.0 | 0.00 | 0.08 | 0.00 | 92 | 1010.2 |
| 20260510090046 | 53 | 213 | 0.0 | 0.0 | 0.00 | 0.08 | 0.00 | 92 | 1010.2 |
| 20260510084546 | 53 | 213 | 0.0 | 0.0 | 0.00 | 0.08 | 0.00 | 91 | 1010.1 |
| 20260510083032 | 53 | 213 | 0.0 | 0.0 | 0.00 | 0.08 | 0.00 | 90 | 1010.3 |
| 20260510081543 | 54 | 213 | 0.0 | 0.0 | 0.00 | 0.11 | 0.00 | 90 | 1010.2 |
| 20260510080030 | 55 | 213 | 0.0 | 0.0 | 0.00 | 0.11 | 0.00 | 89 | 1009.9 |
| 20260510074524 | 55 | 213 | 0.0 | 0.0 | 0.00 | 0.11 | 0.00 | 87 | 1009.8 |
| 20260510073018 | 56 | 213 | 0.0 | 0.0 | 0.00 | 0.11 | 0.00 | 85 | 1009.9 |
| 20260510071521 | 58 | 213 | 0.0 | 0.0 | 0.00 | 0.11 | 0.11 | 82 | 1009.9 |
| 20260510070016 | 59 | 213 | 0.0 | 2.6 | 0.00 | 0.11 | 0.11 | 79 | 1009.8 |
| 20260510064519 | 60 | 221 | 0.0 | 1.7 | 0.00 | 0.11 | 0.11 | 78 | 1009.8 |
| 20260510063013 | 60 | 219 | 0.0 | 1.7 | 0.00 | 0.11 | 0.11 | 77 | 1009.7 |
| 20260510061513 | 61 | 237 | 0.0 | 3.5 | 0.00 | 0.11 | 0.11 | 76 | 1009.7 |
| 20260510060012 | 61 | 184 | 2.6 | 7.0 | 0.00 | 0.11 | 0.11 | 75 | 1009.4 |
| 20260510054512 | 62 | 275 | 0.0 | 6.1 | 0.00 | 0.11 | 0.11 | 75 | 1009.7 |
| 20260510053009 | 62 | 225 | 0.0 | 4.3 | 0.00 | 0.11 | 0.11 | 75 | 1009.8 |
| 20260510051509 | 62 | 224 | 2.6 | 7.8 | 0.00 | 0.11 | 0.11 | 75 | 1009.8 |
| 20260510050008 | 63 | 158 | 2.6 | 5.2 | 0.00 | 0.11 | 0.11 | 74 | 1009.9 |
| 20260510044508 | 63 | 228 | 0.0 | 8.7 | 0.00 | 0.11 | 0.11 | 73 | 1010.0 |
| 20260510043005 | 63 | 267 | 0.9 | 6.1 | 0.00 | 0.11 | 0.11 | 73 | 1009.8 |
| 20260510041504 | 63 | 213 | 3.5 | 8.7 | 0.00 | 0.11 | 0.11 | 73 | 1009.8 |
| 20260510040003 | 63 | 211 | 1.7 | 8.7 | 0.00 | 0.11 | 0.11 | 73 | 1009.8 |
| 20260510034503 | 63 | 205 | 0.0 | 11.3 | 0.00 | 0.11 | 0.11 | 73 | 1009.7 |
| 20260510033138 | 63 | 271 | 1.7 | 7.0 | 0.00 | 0.11 | 0.11 | 73 | 1009.7 |
| 20260510031623 | 63 | 211 | 2.6 | 9.6 | 0.00 | 0.11 | 0.11 | 73 | 1009.7 |
| 20260510030103 | 63 | 199 | 1.7 | 7.0 | 0.00 | 0.11 | 0.11 | 73 | 1009.5 |
| 20260510024558 | 63 | 223 | 0.0 | 5.2 | 0.00 | 0.11 | 0.11 | 72 | 1009.3 |
| 20260510023058 | 63 | 197 | 0.0 | 4.3 | 0.00 | 0.11 | 0.11 | 72 | 1009.2 |
| 20260510021531 | 63 | 244 | 0.0 | 3.5 | 0.00 | 0.11 | 0.11 | 71 | 1009.1 |
| 20260510020026 | 63 | 208 | 0.0 | 5.2 | 0.00 | 0.11 | 0.11 | 70 | 1008.7 |
| 20260510014555 | 64 | 194 | 0.0 | 3.5 | 0.00 | 0.11 | 0.11 | 70 | 1008.6 |
| 20260510013055 | 64 | 201 | 1.7 | 5.2 | 0.00 | 0.11 | 0.11 | 69 | 1008.4 |
| 20260510011553 | 64 | 156 | 1.7 | 4.3 | 0.00 | 0.11 | 0.11 | 69 | 1008.3 |
| 20260510010055 | 64 | 197 | 0.0 | 2.6 | 0.00 | 0.11 | 0.11 | 69 | 1008.0 |
| 20260510004551 | 65 | 180 | 0.0 | 0.0 | 0.00 | 0.11 | 0.11 | 68 | 1007.7 |
| 20260510003052 | 67 | 181 | 0.0 | 0.0 | 0.00 | 0.11 | 0.11 | 64 | 1007.7 |
| 20260510001549 | 68 | 195 | 0.9 | 5.2 | 0.00 | 0.11 | 0.11 | 61 | 1007.5 |
| 20260510000103 | 70 | 201 | 1.7 | 5.2 | 0.00 | 0.11 | 0.11 | 57 | 1007.4 |
| 20260509234557 | 71 | 222 | 0.0 | 7.8 | 0.00 | 0.11 | 0.11 | 56 | 1007.2 |
| 20260509233050 | 71 | 209 | 4.3 | 9.6 | 0.00 | 0.11 | 0.11 | 54 | 1007.1 |
| 20260509231546 | 72 | 213 | 2.6 | 8.7 | 0.00 | 0.11 | 0.11 | 54 | 1007.1 |
| 20260509230042 | 72 | 215 | 0.9 | 8.7 | 0.00 | 0.11 | 0.11 | 54 | 1007.0 |
| 20260509224540 | 72 | 226 | 0.0 | 7.0 | 0.00 | 0.11 | 0.11 | 54 | 1007.1 |
| 20260509223041 | 72 | 213 | 2.6 | 9.6 | 0.00 | 0.11 | 0.11 | 54 | 1007.4 |
| 20260509221505 | 71 | 245 | 2.6 | 10.4 | 0.00 | 0.11 | 0.11 | 53 | 1007.4 |
| 20260509220005 | 72 | 220 | 3.5 | 7.0 | 0.00 | 0.11 | 0.11 | 52 | 1007.6 |
| 20260509214534 | 71 | 211 | 4.3 | 13.0 | 0.00 | 0.11 | 0.11 | 54 | 1007.7 |
| 20260509213035 | 71 | 229 | 4.3 | 10.4 | 0.00 | 0.11 | 0.11 | 53 | 1007.7 |
| 20260509211603 | 71 | 263 | 3.5 | 9.6 | 0.00 | 0.11 | 0.11 | 53 | 1007.7 |
| 20260509210106 | 71 | 234 | 0.9 | 10.4 | 0.00 | 0.11 | 0.11 | 56 | 1007.7 |
| 20260509204557 | 70 | 255 | 0.9 | 7.8 | 0.00 | 0.11 | 0.11 | 57 | 1007.8 |
| 20260509203055 | 70 | 234 | 0.9 | 9.6 | 0.00 | 0.11 | 0.11 | 57 | 1007.8 |
| 20260509201551 | 70 | 268 | 2.6 | 6.1 | 0.00 | 0.11 | 0.11 | 58 | 1007.7 |
| 20260509200103 | 68 | 217 | 0.9 | 5.2 | 0.00 | 0.11 | 0.11 | 59 | 1008.0 |
| 20260509194545 | 68 | 229 | 0.0 | 7.0 | 0.00 | 0.11 | 0.11 | 59 | 1008.3 |
| 20260509193044 | 69 | 241 | 2.6 | 9.6 | 0.00 | 0.11 | 0.11 | 58 | 1008.3 |
| 20260509191543 | 69 | 185 | 3.5 | 8.7 | 0.00 | 0.11 | 0.11 | 57 | 1008.4 |
| 20260509190040 | 69 | 249 | 2.6 | 10.4 | 0.00 | 0.11 | 0.11 | 62 | 1008.4 |
| 20260509184550 | 68 | 269 | 2.6 | 9.6 | 0.00 | 0.11 | 0.11 | 60 | 1008.4 |
| 20260509183033 | 67 | 231 | 5.2 | 12.2 | 0.00 | 0.11 | 0.11 | 61 | 1008.3 |
| 20260509181528 | 66 | 252 | 0.0 | 9.6 | 0.00 | 0.11 | 0.11 | 64 | 1008.4 |
| 20260509180025 | 65 | 262 | 4.3 | 12.2 | 0.00 | 0.11 | 0.11 | 63 | 1008.7 |
| 20260509174558 | 65 | 188 | 4.3 | 10.4 | 0.00 | 0.11 | 0.11 | 62 | 1008.6 |
| 20260509173102 | 64 | 154 | 7.0 | 13.0 | 0.00 | 0.11 | 0.11 | 66 | 1008.5 |
| 20260509171545 | 62 | 169 | 4.3 | 13.0 | 0.00 | 0.11 | 0.11 | 72 | 1008.6 |
| 20260509170041 | 60 | 175 | 5.2 | 10.4 | 0.00 | 0.11 | 0.11 | 80 | 1008.6 |
| 20260509164536 | 57 | 187 | 6.1 | 13.0 | 0.00 | 0.11 | 0.11 | 85 | 1008.7 |
| 20260509163038 | 57 | 171 | 1.7 | 7.0 | 0.02 | 0.11 | 0.11 | 88 | 1008.9 |
| 20260509161533 | 56 | 180 | 3.5 | 0.0 | 0.00 | 0.00 | 0.11 | 90 | 1008.9 |
| 20260509160034 | 56 | 176 | 3.5 | 9.6 | 0.02 | 0.11 | 0.11 | 91 | 1008.9 |
| 20260509154529 | 56 | 158 | 4.3 | 8.7 | 0.02 | 0.11 | 0.11 | 93 | 1008.9 |
| 20260509153040 | 56 | 215 | 0.9 | 3.5 | 0.00 | 0.09 | 0.09 | 95 | 1009.0 |
| 20260509151525 | 55 | 156 | 1.7 | 4.3 | 0.00 | 0.09 | 0.09 | 97 | 1008.7 |
| 20260509150031 | 55 | 194 | 0.9 | 3.5 | 0.00 | 0.09 | 0.09 | 97 | 1008.8 |
| 20260509144529 | 55 | 178 | 1.7 | 5.2 | 0.00 | 0.09 | 0.09 | 97 | 1008.9 |
| 20260509143025 | 55 | 234 | 1.7 | 5.2 | 0.00 | 0.09 | 0.09 | 97 | 1009.0 |
| 20260509141524 | 54 | 184 | 0.0 | 0.0 | 0.00 | 0.09 | 0.09 | 97 | 1008.6 |
| 20260509140018 | 54 | 199 | 0.0 | 2.6 | 0.00 | 0.09 | 0.09 | 97 | 1008.8 |
| 20260509134617 | 53 | 213 | 0.0 | 0.0 | 0.00 | 0.09 | 0.09 | 97 | 1008.9 |
| 20260509133020 | 53 | 237 | 0.0 | 3.5 | 0.01 | 0.09 | 0.09 | 97 | 1008.8 |
| 20260509131514 | 53 | 132 | 2.6 | 5.2 | 0.01 | 0.09 | 0.09 | 97 | 1008.9 |